DCS642 EPSC-EDDN

Flight info

Callsign DCS642
Flight time 0h 47m
Altitude 28000
Route PESEL L87 RAKIT/N0466F320 L87 KETAP/N0450F280 L87 VEVAS/N0472F340 L87 TADUV DCT TOGRO T202 SULED/N0462F300 T202 TABAT/N0468F310 Q244 NIBIL
Aircraft CL60/M-SADE3FGHIJ3J4J7P2RWXY/HB1D1

Departure

Time 2026-04-23 13:18
Airport Solidarity Szczecin–Goleniów Airport (EPSC)

Arrival

Time 2026-04-23 14:05
Airport Nuremberg Airport (EDDN)
Time Latitude Longitude Altitude Speed Heading
2026-04-23 12:48 53.59224 14.89516 131 ft 0 kts 312°
2026-04-23 13:12 53.59223 14.89498 131 ft 3 kts 225°
2026-04-23 13:12 53.59204 14.89529 131 ft 6 kts 84°
2026-04-23 13:12 53.59178 14.89617 132 ft 11 kts 134°
2026-04-23 13:13 53.59117 14.89733 133 ft 14 kts 130°
2026-04-23 13:13 53.59041 14.89882 135 ft 18 kts 131°
2026-04-23 13:13 53.58949 14.90058 137 ft 21 kts 131°
2026-04-23 13:13 53.58841 14.90265 139 ft 25 kts 131°
2026-04-23 13:14 53.58718 14.90506 141 ft 28 kts 131°
2026-04-23 13:14 53.58582 14.90766 146 ft 30 kts 130°
2026-04-23 13:14 53.58438 14.91047 150 ft 32 kts 130°
2026-04-23 13:14 53.58287 14.91341 155 ft 34 kts 133°
2026-04-23 13:15 53.58167 14.91574 157 ft 18 kts 131°
2026-04-23 13:15 53.58111 14.91666 157 ft 8 kts 173°
2026-04-23 13:15 53.58054 14.91602 157 ft 11 kts 222°
2026-04-23 13:15 53.57999 14.91559 157 ft 8 kts 142°
2026-04-23 13:16 53.57950 14.91653 157 ft 12 kts 130°
2026-04-23 13:16 53.57887 14.91770 156 ft 9 kts 148°
2026-04-23 13:16 53.57822 14.91731 156 ft 12 kts 220°
2026-04-23 13:16 53.57766 14.91648 156 ft 1 kts 223°
2026-04-23 13:17 53.57753 14.91625 156 ft 4 kts 234°
2026-04-23 13:17 53.57764 14.91590 157 ft 4 kts 312°
2026-04-23 13:17 53.57766 14.91586 157 ft 0 kts 312°
2026-04-23 13:18 53.57842 14.91439 157 ft 62 kts 310°
2026-04-23 13:18 53.58352 14.90457 203 ft 148 kts 308°
2026-04-23 13:18 53.59038 14.89067 976 ft 166 kts 310°
2026-04-23 13:19 53.59802 14.87580 1994 ft 178 kts 313°
2026-04-23 13:19 53.60631 14.85982 2921 ft 196 kts 313°
2026-04-23 13:19 53.61566 14.84180 3788 ft 220 kts 314°
2026-04-23 13:19 53.62619 14.82151 4645 ft 243 kts 314°
2026-04-23 13:20 53.63576 14.79733 5520 ft 256 kts 297°
2026-04-23 13:20 53.63903 14.76788 6397 ft 270 kts 272°
2026-04-23 13:20 53.63359 14.73701 7291 ft 286 kts 249°
2026-04-23 13:20 53.62449 14.70721 8163 ft 290 kts 248°
2026-04-23 13:21 53.61531 14.67713 9041 ft 292 kts 248°
2026-04-23 13:21 53.60603 14.64666 9925 ft 297 kts 249°
2026-04-23 13:21 53.59654 14.61546 10784 ft 308 kts 249°
2026-04-23 13:21 53.58647 14.58221 11553 ft 333 kts 248°
2026-04-23 13:22 53.57578 14.54709 12655 ft 344 kts 248°
2026-04-23 13:22 53.56487 14.51140 13779 ft 351 kts 248°
2026-04-23 13:22 53.55360 14.47451 14821 ft 359 kts 248°
2026-04-23 13:22 53.54213 14.43707 15833 ft 366 kts 248°
2026-04-23 13:23 53.53039 14.39877 16836 ft 372 kts 248°
2026-04-23 13:23 53.51854 14.36024 17746 ft 380 kts 247°
2026-04-23 13:23 53.50343 14.32306 18648 ft 393 kts 230°
2026-04-23 13:23 53.48272 14.29337 19507 ft 402 kts 218°
2026-04-23 13:24 53.46022 14.26507 20345 ft 408 kts 218°
2026-04-23 13:24 53.43747 14.23634 21187 ft 413 kts 218°
2026-04-23 13:24 53.41442 14.20723 22013 ft 418 kts 218°
2026-04-23 13:24 53.39098 14.17765 22785 ft 424 kts 218°
2026-04-23 13:25 53.36752 14.14810 23543 ft 429 kts 218°
2026-04-23 13:25 53.34357 14.11795 24289 ft 434 kts 218°
2026-04-23 13:25 53.31934 14.08749 25044 ft 439 kts 218°
2026-04-23 13:25 53.29485 14.05674 25777 ft 443 kts 218°
2026-04-23 13:26 53.27045 14.02613 26462 ft 448 kts 218°
2026-04-23 13:26 53.24533 13.99467 27122 ft 452 kts 218°
2026-04-23 13:26 53.21983 13.96278 27730 ft 457 kts 218°
2026-04-23 13:26 53.19432 13.93091 28327 ft 462 kts 218°
2026-04-23 13:27 53.16795 13.90006 28899 ft 466 kts 213°
2026-04-23 13:27 53.13994 13.87119 29425 ft 471 kts 212°
2026-04-23 13:27 53.11187 13.84251 29972 ft 475 kts 212°
2026-04-23 13:27 53.08315 13.81318 30470 ft 479 kts 212°
2026-04-23 13:28 53.05463 13.78409 30960 ft 482 kts 212°
2026-04-23 13:28 53.02610 13.75502 31497 ft 483 kts 212°
2026-04-23 13:28 52.99770 13.72613 32102 ft 482 kts 212°
2026-04-23 13:28 52.96898 13.69695 32732 ft 479 kts 212°
2026-04-23 13:29 52.94053 13.66812 33329 ft 477 kts 211°
2026-04-23 13:29 52.91137 13.64208 33896 ft 475 kts 205°
2026-04-23 13:29 52.88136 13.61913 34155 ft 480 kts 204°
2026-04-23 13:30 52.81898 13.57172 34185 ft 500 kts 204°
2026-04-23 13:30 52.75447 13.52277 34188 ft 516 kts 204°
2026-04-23 13:31 52.68848 13.47281 34191 ft 522 kts 204°
2026-04-23 13:31 52.62227 13.42281 34200 ft 523 kts 204°
2026-04-23 13:32 52.55551 13.37253 34200 ft 522 kts 204°
2026-04-23 13:32 52.48924 13.32278 34205 ft 522 kts 202°
2026-04-23 13:33 52.43397 13.28140 34208 ft 521 kts 202°
2026-04-23 13:33 52.36713 13.23149 34208 ft 521 kts 202°
2026-04-23 13:34 52.30089 13.18220 34205 ft 522 kts 202°
2026-04-23 13:34 52.23431 13.13282 34210 ft 521 kts 202°
2026-04-23 13:35 52.16809 13.08385 34207 ft 522 kts 202°
2026-04-23 13:35 52.10165 13.03489 34220 ft 521 kts 202°
2026-04-23 13:36 52.03543 12.98624 34217 ft 521 kts 202°
2026-04-23 13:36 51.96912 12.93768 34220 ft 521 kts 202°
2026-04-23 13:37 51.90329 12.88958 34230 ft 520 kts 202°
2026-04-23 13:37 51.83633 12.84078 34233 ft 520 kts 202°
2026-04-23 13:38 51.77085 12.79322 34238 ft 520 kts 202°
2026-04-23 13:38 51.70433 12.74505 34240 ft 519 kts 202°
2026-04-23 13:39 51.63817 12.69732 34241 ft 519 kts 202°
2026-04-23 13:39 51.57246 12.65013 34243 ft 519 kts 202°
2026-04-23 13:40 51.50624 12.60270 34247 ft 519 kts 201°
2026-04-23 13:40 51.44079 12.55453 34247 ft 520 kts 206°
2026-04-23 13:41 51.38080 12.48949 34254 ft 523 kts 216°
2026-04-23 13:41 51.32239 12.41996 34259 ft 522 kts 216°
2026-04-23 13:42 51.26450 12.35119 34261 ft 522 kts 216°
2026-04-23 13:42 51.20614 12.28203 34265 ft 521 kts 215°
2026-04-23 13:43 51.14768 12.21302 34265 ft 521 kts 214°
2026-04-23 13:43 51.08924 12.14434 34264 ft 521 kts 214°
2026-04-23 13:44 51.03095 12.07607 34263 ft 521 kts 214°
2026-04-23 13:44 50.97270 12.00806 34262 ft 521 kts 214°
2026-04-23 13:45 50.91441 11.94023 33973 ft 515 kts 214°
2026-04-23 13:45 50.88573 11.90692 33416 ft 507 kts 214°
2026-04-23 13:45 50.85735 11.87401 32849 ft 499 kts 214°
2026-04-23 13:45 50.82942 11.84168 32268 ft 493 kts 214°
2026-04-23 13:46 50.80213 11.81014 31691 ft 487 kts 214°
2026-04-23 13:46 50.77486 11.77867 31102 ft 482 kts 214°
2026-04-23 13:46 50.74775 11.74742 30516 ft 483 kts 215°
2026-04-23 13:46 50.72070 11.71631 29933 ft 484 kts 215°
2026-04-23 13:47 50.69324 11.68479 29340 ft 485 kts 215°
2026-04-23 13:47 50.66604 11.65360 28745 ft 485 kts 215°
2026-04-23 13:47 50.63871 11.62231 28155 ft 481 kts 215°
2026-04-23 13:47 50.61195 11.59171 27576 ft 476 kts 215°
2026-04-23 13:48 50.58407 11.56412 26984 ft 469 kts 205°
2026-04-23 13:48 50.55376 11.54701 26395 ft 459 kts 190°
2026-04-23 13:48 50.52238 11.54117 25805 ft 449 kts 177°
2026-04-23 13:48 50.49152 11.54506 25204 ft 441 kts 168°
2026-04-23 13:49 50.46156 11.55150 24713 ft 437 kts 168°
2026-04-23 13:49 50.43156 11.55783 24175 ft 435 kts 168°
2026-04-23 13:49 50.40163 11.56410 23644 ft 433 kts 169°
2026-04-23 13:49 50.37196 11.57029 23147 ft 430 kts 169°
2026-04-23 13:50 50.34212 11.57650 22620 ft 428 kts 169°
2026-04-23 13:50 50.31269 11.58259 22090 ft 424 kts 169°
2026-04-23 13:50 50.28373 11.58857 21585 ft 421 kts 169°
2026-04-23 13:50 50.25466 11.59456 21065 ft 417 kts 169°
2026-04-23 13:51 50.22612 11.60042 20558 ft 414 kts 169°
2026-04-23 13:51 50.19780 11.60623 20072 ft 411 kts 170°
2026-04-23 13:51 50.16929 11.61206 19553 ft 409 kts 170°
2026-04-23 13:51 50.14129 11.61777 19083 ft 405 kts 170°
2026-04-23 13:52 50.11372 11.62339 18570 ft 403 kts 170°
2026-04-23 13:52 50.08583 11.62904 18080 ft 400 kts 171°
2026-04-23 13:52 50.05811 11.63038 17612 ft 399 kts 182°
2026-04-23 13:52 50.03073 11.62713 17124 ft 397 kts 183°
2026-04-23 13:53 50.00331 11.62388 16629 ft 395 kts 183°
2026-04-23 13:53 49.97606 11.62067 16146 ft 390 kts 184°
2026-04-23 13:53 49.94945 11.61199 15676 ft 388 kts 202°
2026-04-23 13:53 49.92484 11.59524 15192 ft 385 kts 205°
2026-04-23 13:54 49.90076 11.57850 14744 ft 382 kts 205°
2026-04-23 13:54 49.87627 11.56159 14271 ft 379 kts 205°
2026-04-23 13:54 49.85138 11.54960 13819 ft 377 kts 189°
2026-04-23 13:54 49.82546 11.54896 13344 ft 372 kts 173°
2026-04-23 13:55 49.79980 11.55445 12872 ft 365 kts 171°
2026-04-23 13:55 49.77495 11.55986 12441 ft 357 kts 171°
2026-04-23 13:55 49.75080 11.56506 12015 ft 349 kts 171°
2026-04-23 13:55 49.72680 11.57021 11594 ft 342 kts 171°
2026-04-23 13:56 49.70366 11.57515 11188 ft 336 kts 171°
2026-04-23 13:56 49.68061 11.58006 10779 ft 331 kts 171°
2026-04-23 13:56 49.65791 11.58488 10380 ft 326 kts 171°
2026-04-23 13:56 49.63555 11.58961 9983 ft 321 kts 172°
2026-04-23 13:57 49.61361 11.59424 9596 ft 317 kts 172°
2026-04-23 13:57 49.59191 11.59881 9213 ft 313 kts 172°
2026-04-23 13:57 49.57026 11.60336 8829 ft 308 kts 172°
2026-04-23 13:57 49.54913 11.60780 8265 ft 312 kts 172°
2026-04-23 13:58 49.52778 11.61226 7840 ft 308 kts 172°
2026-04-23 13:58 49.50664 11.61228 7353 ft 306 kts 191°
2026-04-23 13:58 49.48667 11.60140 6748 ft 296 kts 213°
2026-04-23 13:58 49.47142 11.58207 6318 ft 280 kts 233°
2026-04-23 13:59 49.46099 11.55703 5612 ft 276 kts 250°
2026-04-23 13:59 49.45708 11.52907 4928 ft 266 kts 274°
2026-04-23 13:59 49.45779 11.50162 4727 ft 245 kts 277°
2026-04-23 13:59 49.45925 11.47648 4713 ft 232 kts 281°
2026-04-23 14:00 49.46064 11.46003 4706 ft 227 kts 282°
2026-04-23 14:00 49.46355 11.42886 4711 ft 216 kts 282°
2026-04-23 14:00 49.46576 11.40652 4738 ft 206 kts 283°
2026-04-23 14:00 49.46796 11.38470 4673 ft 204 kts 283°
2026-04-23 14:01 49.47011 11.36355 4409 ft 197 kts 283°
2026-04-23 14:01 49.47213 11.34337 4184 ft 186 kts 282°
2026-04-23 14:01 49.47407 11.32416 3940 ft 181 kts 282°
2026-04-23 14:01 49.47605 11.30472 3699 ft 181 kts 282°
2026-04-23 14:02 49.47798 11.28564 3463 ft 181 kts 282°
2026-04-23 14:02 49.47989 11.26667 3226 ft 175 kts 282°
2026-04-23 14:02 49.48163 11.24901 2984 ft 156 kts 281°
2026-04-23 14:02 49.48311 11.23387 2855 ft 139 kts 281°
2026-04-23 14:03 49.48463 11.21899 2634 ft 139 kts 281°
2026-04-23 14:03 49.48610 11.20456 2463 ft 135 kts 279°
2026-04-23 14:03 49.48753 11.19034 2286 ft 131 kts 281°
2026-04-23 14:03 49.48891 11.17653 2095 ft 129 kts 283°
2026-04-23 14:04 49.49027 11.16299 1936 ft 130 kts 282°
2026-04-23 14:04 49.49166 11.14905 1763 ft 133 kts 279°
2026-04-23 14:04 49.49302 11.13513 1594 ft 129 kts 282°
2026-04-23 14:04 49.49448 11.12078 1417 ft 140 kts 275°
2026-04-23 14:05 49.49579 11.10632 1239 ft 133 kts 282°
2026-04-23 14:05 49.49725 11.09264 1054 ft 126 kts 280°
2026-04-23 14:05 49.49845 11.08046 1029 ft 97 kts 279°
2026-04-23 14:05 49.49918 11.07344 1024 ft 36 kts 281°
2026-04-23 14:06 49.49941 11.07087 1023 ft 12 kts 269°
2026-04-23 14:06 49.49892 11.07011 1022 ft 10 kts 179°
2026-04-23 14:06 49.49846 11.07031 1022 ft 5 kts 158°
2026-04-23 14:06 49.49830 11.07040 1022 ft 2 kts 158°
2026-04-23 14:07 49.49805 11.07056 1022 ft 5 kts 157°
2026-04-23 14:07 49.49742 11.07138 1023 ft 11 kts 100°
2026-04-23 14:07 49.49709 11.07233 1023 ft 7 kts 170°
2026-04-23 14:08 49.49646 11.07223 1023 ft 7 kts 188°
2026-04-23 14:08 49.49582 11.07208 1023 ft 11 kts 189°
2026-04-23 14:08 49.49508 11.07193 1023 ft 7 kts 156°
2026-04-23 14:08 49.49491 11.07284 1023 ft 10 kts 98°
2026-04-23 14:09 49.49484 11.07361 1024 ft 4 kts 98°
2026-04-23 14:09 49.49479 11.07402 1024 ft 3 kts 108°
2026-04-23 14:09 49.49456 11.07427 1024 ft 5 kts 193°
2026-04-23 14:09 49.49422 11.07405 1022 ft 6 kts 242°
2026-04-23 14:10 49.49403 11.07351 1021 ft 4 kts 190°
2026-04-23 14:10 49.49393 11.07348 1021 ft 1 kts 189°
2026-04-23 14:10 49.49392 11.07348 1021 ft 0 kts 189°